Weather History for VOMM - October, 2013

Change the Weather History Date:

Thursday, October 10, 2013

  Actual Average Record
Temperature  
Mean Temperature 82 °F -  
Max Temperature 91 °F 84 °F 97 °F (2012)
Min Temperature 72 °F 73 °F 72 °F (2013)
Cooling Degree Days 16    
Growing Degree Days 32 (Base 50)    
Moisture  
Dew Point 73 °F    
Average Humidity 82    
Maximum Humidity 94    
Minimum Humidity 58    
Precipitation  
Precipitation 0.02 in 0.51 in - ()
Sea Level Pressure  
Sea Level Pressure 29.78 in    
Wind  
Wind Speed 3 mph ()    
Max Wind Speed 7 mph    
Max Gust Speed -    
Visibility 2.6 miles    
Events Rain , Thunderstorm    
Averages and records for this station are not official NWS values.
T = Trace of Precipitation, MM = Missing Value Source: Averaged Metar Reports

Daily Weather History Graph

Daily Weather History Graph

Search for Another Location

Airport or City:

Trip Planner

Search our weather history database for the weather conditions in past years. The results will help you decide how hot, cold, wet, or windy it might be!

Date:

Astronomy

Oct. 10, 2013 Rise Set
Actual Time 5:59 AM IST 5:53 PM IST
Civil Twilight 5:37 AM IST 6:14 PM IST
Nautical Twilight 5:13 AM IST 6:39 PM IST
Astronomical Twilight 4:48 AM IST 7:04 PM IST
Moon 10:47 AM IST (10/10) 10:36 PM IST (10/10)
Length of Visible Light 12h 36m
Length of Day
11h 54m
Waxing Crescent, 31% of the Moon is Illuminated
Oct 10
Waxing Crescent
Oct 12
First Quarter
Oct 19
Full
Oct 27
Last Quarter
Nov 3
New

Hourly Weather History & Observations

Time (IST) Temp. Heat Index Dew Point Humidity Pressure Visibility Wind Dir Wind Speed Gust Speed Precip Events Conditions
12:10 AM 75.2 °F - 71.6 °F 89% 29.77 in 2.5 mi WSW 5.8 mph - N/A   Haze
12:40 AM 75.2 °F - 71.6 °F 89% 29.74 in 2.5 mi SW 4.6 mph - N/A   Haze
1:10 AM 75.2 °F - 71.6 °F 89% 29.74 in 2.5 mi SSW 3.5 mph - N/A   Haze
1:40 AM 75.2 °F - 71.6 °F 89% 29.74 in 2.5 mi SW 4.6 mph - N/A   Haze
2:10 AM 75.2 °F - 71.6 °F 89% 29.74 in 2.5 mi West 4.6 mph - N/A   Haze
2:30 AM 74 °F - 72 °F 91% 29.78 in 2 mi Calm Calm - -   Partly Cloudy
2:40 AM 75.2 °F - 71.6 °F 89% 29.74 in 2.5 mi WNW 4.6 mph - N/A   Haze
3:10 AM 75.2 °F - 73.4 °F 94% 29.74 in 2.5 mi West 3.5 mph - N/A   Haze
3:40 AM 77.0 °F - 71.6 °F 83% 29.74 in 2.5 mi West 4.6 mph - N/A   Haze
4:10 AM 77.0 °F - 71.6 °F 83% 29.74 in 2.5 mi WSW 5.8 mph - N/A   Haze
4:40 AM 77.0 °F - 73.4 °F 89% 29.74 in 2.5 mi West 4.6 mph - N/A   Haze
5:10 AM 77.0 °F - 73.4 °F 89% 29.77 in 2.5 mi WNW 4.6 mph - N/A   Haze
5:30 AM 75 °F - 73 °F 92% 29.81 in 2 mi Calm Calm - - Thunderstorm Light Thunderstorm
5:40 AM 77.0 °F - 73.4 °F 89% 29.77 in 2.5 mi NW 4.6 mph - N/A   Haze
6:10 AM 77.0 °F - 71.6 °F 83% 29.80 in 2.5 mi WNW 3.5 mph - N/A   Haze
6:40 AM 77.0 °F - 71.6 °F 83% 29.80 in 2.5 mi WSW 4.6 mph - N/A   Haze
7:10 AM 77.0 °F - 71.6 °F 83% 29.80 in 2.5 mi Calm Calm - N/A   Haze
7:40 AM 77.0 °F - 73.4 °F 89% 29.80 in 2.2 mi South 3.5 mph - N/A Rain Light Rain
8:10 AM 77.0 °F - 75.2 °F 94% 29.80 in 2.2 mi South 3.5 mph - N/A Rain Light Rain
8:30 AM 78 °F - 75 °F 89% 29.84 in 2 mi Calm Calm - - Rain Light Drizzle
8:40 AM 78.8 °F - 75.2 °F 89% 29.83 in 2.2 mi SW 4.6 mph - N/A   Light Drizzle
9:10 AM 80.6 °F 86.2 °F 75.2 °F 84% 29.83 in 2.8 mi WSW 4.6 mph - N/A   Haze
10:10 AM 82.4 °F 89.5 °F 75.2 °F 79% 29.83 in 3.7 mi WSW 4.6 mph - N/A   Scattered Clouds
10:40 AM 84.2 °F 92.3 °F 75.2 °F 74% 29.83 in 3.7 mi WSW 4.6 mph - N/A   Scattered Clouds
11:10 AM 84.2 °F 90.9 °F 73.4 °F 70% 29.83 in 3.7 mi South 3.5 mph - N/A   Scattered Clouds
11:30 AM 85 °F - 77 °F 70% 29.84 in 6 mi Calm Calm - -   Partly Cloudy
11:40 AM 84.2 °F 92.3 °F 75.2 °F 74% 29.80 in 3.7 mi SE 3.5 mph - N/A   Scattered Clouds
12:10 PM 86.0 °F 93.4 °F 73.4 °F 66% 29.80 in 3.7 mi SE 3.5 mph - N/A   Scattered Clouds
12:40 PM 87.8 °F 97.6 °F 75.2 °F 66% 29.77 in 3.7 mi West 5.8 mph - N/A   Scattered Clouds
1:10 PM 87.8 °F 97.6 °F 75.2 °F 66% 29.74 in 3.7 mi West 4.6 mph - N/A   Scattered Clouds
1:40 PM 89.6 °F 99.8 °F 75.2 °F 62% 29.74 in 3.7 mi West 3.5 mph - N/A   Scattered Clouds
2:10 PM 89.6 °F 98.2 °F 73.4 °F 59% 29.71 in 3.7 mi West 4.6 mph - N/A   Scattered Clouds
2:30 PM 89 °F - 76 °F 58% 29.75 in 2 mi North 6.9 mph - -   Partly Cloudy
3:10 PM 80.6 °F 84.6 °F 71.6 °F 74% 29.74 in 1.9 mi ENE 6.9 mph - N/A Rain , Thunderstorm Light Thunderstorms and Rain
3:40 PM 80.6 °F 84.6 °F 71.6 °F 74% 29.74 in 1.9 mi East 3.5 mph - N/A Rain , Thunderstorm Light Thunderstorms and Rain
4:10 PM 80.6 °F 84.6 °F 71.6 °F 74% 29.74 in 1.9 mi SSE 3.5 mph - N/A Rain , Thunderstorm Light Thunderstorms and Rain
4:40 PM 80.6 °F 85.4 °F 73.4 °F 79% 29.74 in 1.9 mi SE 3.5 mph - N/A Rain , Thunderstorm Light Thunderstorms and Rain
5:10 PM 80.6 °F 84.6 °F 71.6 °F 74% 29.74 in 1.9 mi ESE 3.5 mph - N/A Rain , Thunderstorm Light Thunderstorms and Rain
5:30 PM 79 °F - 75 °F 84% 29.78 in 2 mi Calm Calm - - Rain Light Drizzle
5:40 PM 78.8 °F - 71.6 °F 78% 29.77 in 1.9 mi SSE 4.6 mph - N/A Rain , Thunderstorm Light Thunderstorms and Rain
6:10 PM 78.8 °F - 71.6 °F 78% 29.77 in 2.5 mi SE 3.5 mph - N/A   Haze
6:40 PM 78.8 °F - 71.6 °F 78% 29.77 in 2.5 mi SSE 4.6 mph - N/A   Haze
7:10 PM 77.0 °F - 73.4 °F 89% 29.77 in 2.5 mi South 3.5 mph - N/A   Haze
7:40 PM 77.0 °F - 73.4 °F 89% 29.80 in 2.5 mi Calm Calm - N/A   Haze
8:10 PM 78.8 °F - 75.2 °F 89% 29.80 in 2.5 mi South 3.5 mph - N/A   Haze
8:30 PM 77 °F - 74 °F 89% 29.84 in 2 mi Calm Calm - -   Scattered Clouds
8:40 PM 77.0 °F - 75.2 °F 94% 29.80 in 2.5 mi South 3.5 mph - N/A   Haze
9:10 PM 78.8 °F - 73.4 °F 83% 29.83 in 2.5 mi West 3.5 mph - N/A   Haze
9:40 PM 77.0 °F - 73.4 °F 89% 29.83 in 2.5 mi West 4.6 mph - N/A   Haze
10:10 PM 77.0 °F - 73.4 °F 89% 29.80 in 2.5 mi West 3.5 mph - N/A   Haze
10:40 PM 77.0 °F - 73.4 °F 89% 29.80 in 2.5 mi West 3.5 mph - N/A   Haze
11:10 PM 77.0 °F - 75.2 °F 94% 29.80 in 2.5 mi WNW 3.5 mph - N/A   Haze
11:30 PM 78 °F - 75 °F 88% 29.85 in 2 mi Calm Calm - -   Mostly Cloudy
11:40 PM 77.0 °F - 75.2 °F 94% 29.80 in 2.5 mi Calm Calm - N/A   Haze